#timestamp,LO_Frequency,Hit,StdDev 
1618288275.9,286046997.5,P
1618288295.7,286046997.1,P
1618288315.5,286046997.8,P
1618288335.4,286046997.6,Y
1618288355.2,286046999.2,P
1618288375.0,286046996.9,P
1618288376.0,286046996.9,P
1618288395.8,286046997.0,Y
1618288415.6,286047000.8,P
1618288435.5,286047002.6,N
1618288455.3,286047002.0,N
1618288475.1,286047000.6,N
1618288495.9,286047001.1,N
1618288515.7,286047000.6,N
1618288535.6,286047000.5,N
1618288555.4,286046999.7,N
1618288575.2,286047001.6,N
1618288595.1,286047002.1,N
1618288596.0,286047002.1,N
1618288615.8,286047001.9,N
1618288635.6,286047002.4,N
1618288655.5,286046999.8,N
1618288675.3,286047002.1,N
1618288695.2,286047002.7,N
1618288715.9,286046999.7,N
1618288735.7,286047004.4,Y
1618288755.6,286047000.0,P
1618288775.4,286047000.2,N
1618288795.2,286047000.5,N
1618288815.1,286047000.0,N
1618288816.0,286047000.0,N
1618288835.8,286047002.8,Y
1618288855.7,286047000.4,P
1618288875.5,286047002.7,P
1618288895.3,286047002.2,N
1618288915.2,286047002.7,N
1618288935.0,286047002.4,N
1618288935.9,286047002.4,N
1618288955.8,286047000.0,N
1618288975.6,286047000.1,N
1618288995.4,286047000.2,N
1618289015.3,286047002.4,N
1618289035.1,286046999.7,N
1618289036.0,286046999.7,N
1618289055.8,286047002.5,N
1618289075.7,286047001.8,N
1618289095.5,286047003.7,Y
1618289115.4,286047002.6,P
1618289135.2,286047002.2,P
1618289155.0,286047001.3,N
1618289155.9,286047001.3,N
1618289175.8,286047004.4,Y
1618289195.6,286047003.1,P
1618289215.4,286047003.4,P
1618289235.3,286047003.4,P
1618289255.1,286047003.0,Y
1618289275.9,286047001.9,P
1618289295.7,286047002.0,P
1618289315.5,286047001.7,P
1618289335.4,286047002.3,Y
1618289355.2,286047001.9,P
1618289375.0,286047003.4,P
1618289376.0,286047003.4,P
1618289395.8,286047007.0,Y
1618289415.6,286047002.9,P
1618289435.5,286047004.6,P
1618289455.3,286047006.0,P
1618289475.1,286047001.4,N
1618289495.9,286047002.7,N
1618289515.7,286047002.0,N
1618289535.6,286047000.7,N
1618289555.4,286046998.1,N
1618289575.2,286046998.5,N
1618289595.1,286046997.7,N
1618289596.0,286046997.7,N
1618289615.8,286046998.0,N
1618289635.6,286046995.4,N
1618289655.5,286046995.8,N
1618289675.3,286046995.0,N
1618289695.2,286046999.6,N
1618289715.9,286046998.9,N
1618289735.7,286047000.5,N
1618289755.6,286047000.8,N
1618289775.4,286047000.0,N
1618289795.2,286047002.7,N
1618289815.1,286047006.0,N
1618289816.0,286047006.0,N
1618289835.8,286047003.0,N
1618289855.7,286047002.6,N
1618289875.5,286047000.9,N
1618289895.3,286046999.3,N
1618289915.2,286046999.5,N
1618289935.0,286046997.6,N
1618289935.9,286046997.6,N
1618289955.7,286046996.8,N
1618289975.6,286046999.2,N
1618289995.4,286046997.5,N
